Find Starling 2

NORAD ID: 57387 Int'l Des: 2023-100 Owner: ARC Country: US operational
LEOCIRCULARRETROGRADE

リアルタイム位置

3D地球を読み込み中...

Starling 2について

説明を読み込み中...

次回通過

Passes for default location (London). Set your location on the main map for personalized predictions.

高度履歴

Loading altitude history...

軌道要素

1 57387U 23100B 26105.95165884 .00001450 00000-0 10448-3 0 9996
2 57387 99.5120 109.2033 0004784 333.0826 27.0147 15.06420554150531
Epoch: Apr 15, 2026 • Age: 5 hours

現在のステータス

高度 555.2 km
速度 7.59 km/s
衛星直下点 52.71°N, 165.38°W
打ち上げ日 Jul 18, 2023
運用期間 2.7 years
タイプ other

技術仕様

分類 Payload
質量 12.00 kg
乾燥質量 12.00 kg
総質量 12.00 kg
長さ 0.30 m
直径 0.20 m
スパン 0.50 m
形状 Box + 2 pan
製造者 BLCAN
バスタイプ Cubesat 6U
フェーズステータス In Orbit
所有者/国 ARC/US

Most Searched